Hannover

Airport
ICAO code: 
EDDV
Summary
ICAO Region: 
EUR
Territory: 
Location: 
Hannover, Germany,
Elevation: 
183 ft
Coordinates: 
Aerial View: 
52° 27' 39.966" N, 9° 41' 6.286" E
Metar
Observation
EDDV 211050Z 28011KT 9999 SCT008 03/01 Q1029 NOSIG
Station
Hannover
Date/Time
2022-01-21 10:50:00
Wind direction
280°
Wind speed
11 kts
Lowest cloud amount
scattered clouds
Temperature
3°C
Dew point
1°C
Humidity
86%
QNH
1029 hPa
Weather condition
n/a

Description

International airport serving Hannover, Germany.

Climatology

Temperate Marine climate/Oceanic climate (Köppen climate classification Cfb) - Moderately cool summer and comparatively warm winter.

Runways

Designator Length Width Surface Rops
09C/27C 780 23 ASP Yes/Yes
09R/27L 2340 45 CON Yes/Yes
09L/27R 3800 45 CON Yes/Yes
Airport map: 
Aerial View: 

Accidents and Serious Incidents at or in the vicinity of EDDV

SKYbrary Partners:

Safety knowledge contributed by: